Regional Weather Roundup
Issued by NWS Newport/Morehead, NC

Current Version | Previous Version | Text Only | Print | Product List | Glossary On
Versions: 1 2 3 4 5 6 7 8 9 10 11 12 13 14 15 16 17 18 19 20 21 22 23 24 25 26 27 28 29 30 31 32 33 34 35 36 37 38 39 40 41 42 43 44 45 46 47 48 49 50
000
ASUS42 KMHX 030525
RWRMHX
WEATHER ROUNDUP FOR EASTERN NORTH CAROLINA
NATIONAL WEATHER SERVICE NEWPORT/MOREHEAD CITY NC
100 AM EDT MON AUG 03 2015

NOTE: "FAIR" INDICATES FEW OR NO CLOUDS BELOW 12,000 FEET
WITH NO SIGNIFICANT WEATHER AND/OR OBSTRUCTIONS TO VISIBILITY

NCZ015>017-031-032-045>047-102-103-030600-
NORTH COAST

CITY           SKY/WX    TMP DP  RH WIND       PRES   REMARKS
EDENTON        CLEAR     72  70  93 CALM      29.95S
ELIZABETH CITY PTCLDY    73  70  90 S3        29.94S
KITTY HAWK     PTCLDY    79  73  80 SW5       29.94R
MANTEO         MOCLDY    79  75  87 SW10      29.95S

$$

NCZ045>047-081-094-103-104-030600-
CENTRAL COAST

CITY           SKY/WX    TMP DP  RH WIND       PRES   REMARKS
FRISCO         PTCLDY    79  74  84 SW10      29.96S
SWANQUARTER      N/A     79 N/A N/A W10       29.91S

$$

NCZ095-097-098-100-101-030600-
SOUTHERN COAST

CITY           SKY/WX    TMP DP  RH WIND       PRES   REMARKS
BEAUFORT       PTCLDY    80  75  84 SW13      29.94F
CEDAR ISLAND     N/A     77 N/A N/A SW6       29.97S
JACKSONVILLE   PTCLDY    74  72  93 CALM      29.93F
PINEY ISLAND   PTCLDY   N/A N/A N/A S5        29.94F
WILMINGTON     MOCLDY    78  72  81 SW15      29.94F


$$

NCZ011>013-027>030-043-044-078>080-089-090>093-098-030600-
COASTAL PLAIN

CITY           SKY/WX    TMP DP  RH WIND       PRES   REMARKS
AHOSKIE        PTCLDY    70  66  87 CALM      29.94S
CLINTON        PTCLDY    74  73  97 CALM      29.95S
ELIZABETHTOWN  MOCLDY    75  73  94 CALM      29.93F
GOLDSBORO      CLEAR     76  73  92 S2        29.93S
GREENVILLE     PTCLDY    73  73 100 CALM      29.97S
HAVELOCK       PTCLDY    75  72  90 S3        29.95F
KENANSVILLE    PTCLDY    70  69  95 CALM      29.95F
KINSTON        CLEAR     74  72  94 S3        29.96S
NEW BERN       PTCLDY    73  70  90 CALM      29.96F
RICHLANDS      PTCLDY    72  66  83 CALM      29.94F
ROCKY MOUNT    PTCLDY    78  70  76 SW6       29.95S
WASHINGTON     CLEAR     75  72  91 CALM      29.95F
WHITEVILLE     PTCLDY    75  73  91 CALM      29.93S

$$

AMZ130-135-150-152-154-156-158-170-250-252-270-ANZ085-086-088-633-658-670-030600-
MARINE OBSERVATIONS

STATION/POSITION TIME  TEMP    WIND        PRES    WAVE   SWELL
                       AIR SEA DIR/SP/G            HT/PER HT/PER
                 (UTC) (F)     (DEG/KT/KT) (MB)    (FT/S) (FT/S)
CHESAPEAKE LIGHT 0500   80     260/  2/  2 1014.0
64 E VA BEACH    0450   82 81  210/ 12/ 14 1013.0    3/11   2/11
DUCK             0500   80 72  260/  4/  5 1012.9
2 E DUCK         0411      79                N/A     2/11   2/11
OREGON INLET     0500   81 86  230/ 11/ 13 1014.0
13E OREGON INLT  0500      81                N/A     3/11   2/11
HATTERAS CG      0500   79 83  230/  6/  9 1014.1
DIAMOND BUOY     0450   82 85  220/ 14/ 16 1014.2    3/ 4   2/ 8
CAPE LOOKOUT     0500   76     190/ 10/ 13 1013.8
BEAUFORT LAB     0500   80 83  210/  7/ 11 1013.1
30 SE NEW RVR IN NOT AVBL
27 SE WRIGHTSVLE 0500   75 82  240/ 19/ 23   N/A
5 SE WRIGHTSVLE  0408   80 83  210/ 19/ 23 1013.6
225 S CAPE HAT   0450   82 81  200/ 14/ 16 1016.9    4/ 7   3/ 7
41 SE CHARLESTON 0450   82 83  170/ 21/ 25 1012.6    7/ 6   2/11

$$



USA.gov is the U.S. government's official web portal to all federal, state and local government web resources and services.